User: anonymous   Login
Location: Mentone
(34.5413°N, 85.5351°W)
Time: 02:08:59
(UTC-06:00)
Language:

UOSAT-12 - Orbit

View from above orbital plane
View from above orbital plane
View from above satellite
View from above satellite

Ground track
Ground track

The orbit data is extracted from the following two-line orbital elements,

1 25693U 99021A   17054.58935644 -.00000035  00000-0  14258-4 0  9990
2 25693  64.5557 115.7884 0024096 323.2437  36.7015 14.80715776963341
Epoch (UTC): 23 February 2017 14:08:40
Eccentricity: 0.0024096
inclination: 64.5557°
perigee height: 610 km
apogee height: 644 km
right ascension of ascending node: 115.7884°
argument of perigee: 323.2437°
revolutions per day: 14.80715776
mean anomaly at epoch: 36.7015°
orbit number at epoch: 96334

The dashed part of the orbit path shows where the satellite is in the earth's shadow,  

DLR